Voltar ao catálogo

FENGYUN 1C DEB

LostSSO
NORAD 31897·DEBRIS·🇨🇳 China

Lançado May 10, 1999 de Taiyuan Satellite Launch Center

Loading…

Próximas Passagens (próximas 24 horas)

TLE

ObsoletoSource: Space-Track

Época: Oct 14, 2015, 07:10 UTC

1 31897U 99025CKY 15287.29917184 +.00000532 +00000-0 +26114-3 0  9994
2 31897 098.8324 314.7133 0088884 110.1889 244.1416 14.19824757433011

Acompanhe FENGYUN 1C DEB em tempo real com AllMySat

Download on the App Store